Terug naar catalogus

STARLINK-5844

ActiefCommunicatieVLEO
NORAD 57068·PAYLOAD·🇺🇸 United States

Gelanceerd Jun 22, 2023 vanaf Vandenberg Space Force Base

Loading…

Volgende Passages (komende 24 uur)

TLE

VersSource: CelesTrak SupGP

Epoch: Sep 15, 2026, 02:42 UTC

1 57068C 23088W   26258.11298611  .00054528  00000+0  19747-2 0  2580
2 57068  43.0008 124.4755 0001200 268.3091 329.3138 15.27557214    12

Volg STARLINK-5844 in realtime met AllMySat

Download on the App Store